Weather History for Fremont, NE

Change the Weather History Date:

Tuesday, January 15, 2013

  Actual Average Record
Temperature  
Mean Temperature 22 °F -  
Max Temperature 34 °F 33 °F 68 °F (2006)
Min Temperature 11 °F 13 °F -15 °F (1972)
Degree Days  
Heating Degree Days 42    
Moisture  
Dew Point 16 °F    
Average Humidity 75    
Maximum Humidity 91    
Minimum Humidity 58    
Precipitation  
Precipitation 0.00 in - - ()
Sea Level Pressure  
Sea Level Pressure 30.20 in    
Wind  
Wind Speed 5 mph (SSW)    
Max Wind Speed 15 mph    
Max Gust Speed 18 mph    
Visibility 10 miles    
Events      
Averages and records for this station are not official NWS values.
T = Trace of Precipitation, MM = Missing Value Source: NWS Daily Summary

Daily Weather History Graph

Daily Weather History Graph

Search for Another Location

Airport:

Trip Planner

Search our weather history database for the weather conditions in past years. The results will help you decide how hot, cold, wet, or windy it might be!

Date:

Astronomy

Jan. 15, 2013 Rise Set
Actual Time 7:49 AM CST 5:21 PM CST
Civil Twilight 7:19 AM CST 5:52 PM CST
Nautical Twilight 6:45 AM CST 6:26 PM CST
Astronomical Twilight 6:12 AM CST 6:59 PM CST
Moon 9:52 AM CST (1/15) 10:16 PM CST (1/15)
Length of Visible Light 10h 32m
Length of Day
9h 31m
Waxing Crescent, 19% of the Moon is Illuminated
Jan 15
Waxing Crescent
Jan 18
First Quarter
Jan 26
Full
Feb 3
Last Quarter
Feb 10
New

Hourly Weather History & Observations

Time (CST) Temp. Windchill Dew Point Humidity Pressure Visibility Wind Dir Wind Speed Gust Speed Precip Events Conditions
12:15 AM 18.5 °F 11.7 °F 11.8 °F 75% 30.33 in 10.0 mi SSW 4.6 mph - N/A   Scattered Clouds
12:35 AM 18.7 °F 13.5 °F 12.0 °F 75% 30.33 in 10.0 mi SW 3.5 mph - N/A   Scattered Clouds
12:55 AM 19.2 °F 12.5 °F 12.2 °F 74% 30.33 in 10.0 mi SW 4.6 mph - N/A   Clear
1:15 AM 18.9 °F 10.8 °F 12.2 °F 75% 30.33 in 10.0 mi SW 5.8 mph - N/A   Clear
1:35 AM 18.9 °F 13.7 °F 12.0 °F 75% 30.32 in 10.0 mi SSW 3.5 mph - N/A   Clear
1:55 AM 17.2 °F - 11.3 °F 78% 30.32 in 10.0 mi Calm Calm - N/A   Clear
2:15 AM 17.1 °F - 11.1 °F 77% 30.32 in 10.0 mi Calm Calm - N/A   Clear
2:35 AM 16.7 °F - 11.3 °F 79% 30.31 in 10.0 mi Calm Calm - N/A   Scattered Clouds
2:55 AM 15.1 °F - 10.9 °F 84% 30.32 in 10.0 mi Calm Calm - N/A   Scattered Clouds
3:15 AM 16.9 °F - 10.8 °F 77% 30.31 in 10.0 mi Calm Calm - N/A   Clear
3:35 AM 15.4 °F - 10.8 °F 82% 30.31 in 10.0 mi Calm Calm - N/A   Clear
3:55 AM 16.7 °F - 11.5 °F 80% 30.30 in 10.0 mi Calm Calm - N/A   Clear
4:55 AM 12.7 °F - 9.9 °F 88% 30.29 in 10.0 mi Calm Calm - N/A   Clear
5:15 AM 12.9 °F 6.9 °F 10.8 °F 91% 30.28 in 10.0 mi SSE 3.5 mph - N/A   Clear
5:35 AM 12.2 °F - 9.7 °F 90% 30.28 in 10.0 mi Calm Calm - N/A   Clear
5:55 AM 14.5 °F - 10.9 °F 86% 30.28 in 10.0 mi Calm Calm - N/A   Clear
6:15 AM 11.3 °F - 8.1 °F 87% 30.28 in 10.0 mi Calm Calm - N/A   Clear
6:35 AM 13.6 °F - 10.4 °F 87% 30.28 in 10.0 mi Calm Calm - N/A   Clear
6:55 AM 11.3 °F - 8.8 °F 90% 30.28 in 10.0 mi Calm Calm - N/A   Clear
7:15 AM 11.7 °F - 9.1 °F 90% 30.28 in 10.0 mi Calm Calm - N/A   Clear
7:35 AM 11.8 °F 3.9 °F 9.3 °F 90% 30.28 in 10.0 mi South 4.6 mph - N/A   Clear
7:55 AM 12.9 °F 6.9 °F 10.4 °F 90% 30.29 in 10.0 mi ESE 3.5 mph - N/A   Clear
8:15 AM 14.4 °F - 10.6 °F 85% 30.29 in 10.0 mi Calm Calm - N/A   Scattered Clouds
8:35 AM 15.8 °F 10.2 °F 10.9 °F 81% 30.29 in 10.0 mi SE 3.5 mph - N/A   Clear
8:55 AM 18.0 °F 11.1 °F 12.7 °F 80% 30.29 in 10.0 mi South 4.6 mph - N/A   Clear
9:15 AM 19.9 °F 14.9 °F 13.6 °F 77% 30.28 in 10.0 mi South 3.5 mph - N/A   Clear
9:35 AM 21.0 °F 14.6 °F 13.8 °F 74% 30.28 in 10.0 mi South 4.6 mph - N/A   Clear
9:55 AM 23.0 °F 15.8 °F 14.4 °F 70% 30.28 in 10.0 mi South 5.8 mph - N/A   Clear
10:15 AM 23.9 °F 14.2 °F 14.5 °F 67% 30.27 in 10.0 mi South 9.2 mph - N/A   Clear
10:35 AM 25.5 °F 16.2 °F 15.1 °F 65% 30.26 in 10.0 mi South 9.2 mph - N/A   Clear
10:55 AM 26.1 °F 16.2 °F 15.4 °F 64% 30.26 in 10.0 mi SSW 10.4 mph 16.1 mph N/A   Clear
11:15 AM 27.0 °F 18.0 °F 16.2 °F 64% 30.26 in 10.0 mi SSW 9.2 mph - N/A   Clear
11:35 AM 28.2 °F 18.3 °F 17.1 °F 63% 30.25 in 10.0 mi SSW 11.5 mph - N/A   Clear
11:55 AM 30.0 °F 21.1 °F 17.1 °F 59% 30.23 in 10.0 mi SSW 10.4 mph - N/A   Clear
12:15 PM 30.2 °F 21.3 °F 17.4 °F 59% 30.21 in 10.0 mi South 10.4 mph - N/A   Clear
12:35 PM 31.5 °F 23.5 °F 18.5 °F 59% 30.20 in 10.0 mi SSW 9.2 mph - N/A   Clear
12:55 PM 32.0 °F 22.5 °F 18.7 °F 58% 30.19 in 10.0 mi South 12.7 mph - N/A   Clear
1:15 PM 32.2 °F 24.4 °F 19.6 °F 60% 30.19 in 10.0 mi SSW 9.2 mph - N/A   Clear
1:35 PM 32.4 °F 24.0 °F 20.3 °F 61% 30.18 in 10.0 mi SSW 10.4 mph - N/A   Clear
1:55 PM 33.6 °F 26.2 °F 21.2 °F 60% 30.17 in 10.0 mi SSW 9.2 mph - N/A   Clear
2:15 PM 33.4 °F 24.3 °F 21.4 °F 61% 30.16 in 10.0 mi SSW 12.7 mph - N/A   Clear
2:35 PM 34.0 °F 25.0 °F 22.1 °F 62% 30.16 in 10.0 mi South 12.7 mph 16.1 mph N/A   Clear
2:55 PM 33.8 °F 24.8 °F 21.7 °F 61% 30.16 in 10.0 mi SSW 12.7 mph - N/A   Clear
3:15 PM 34.0 °F 26.0 °F 22.1 °F 62% 30.15 in 10.0 mi SSW 10.4 mph - N/A   Clear
3:35 PM 34.0 °F 24.2 °F 21.9 °F 61% 30.15 in 10.0 mi South 15.0 mph - N/A   Clear
3:55 PM 33.8 °F 25.3 °F 21.7 °F 61% 30.14 in 10.0 mi South 11.5 mph 17.3 mph N/A   Clear
4:15 PM 33.8 °F 25.3 °F 21.7 °F 61% 30.13 in 10.0 mi South 11.5 mph 18.4 mph N/A   Clear
4:55 PM 32.2 °F 25.0 °F 21.7 °F 65% 30.13 in 10.0 mi South 8.1 mph - N/A   Clear
5:15 PM 32.0 °F 23.0 °F 22.1 °F 67% 30.14 in 10.0 mi SSW 11.5 mph - N/A   Clear
5:35 PM 31.1 °F 23.1 °F 22.1 °F 69% 30.13 in 10.0 mi South 9.2 mph - N/A   Clear
5:55 PM 30.6 °F 22.4 °F 22.3 °F 71% 30.13 in 10.0 mi South 9.2 mph - N/A   Clear
6:15 PM 29.8 °F 22.2 °F 22.1 °F 73% 30.13 in 10.0 mi SSW 8.1 mph - N/A   Clear
6:35 PM 29.3 °F 21.5 °F 22.1 °F 75% 30.13 in 10.0 mi SSW 8.1 mph - N/A   Clear
6:55 PM 28.2 °F 20.2 °F 21.7 °F 77% 30.12 in 10.0 mi SSW 8.1 mph - N/A   Clear
7:15 PM 28.0 °F 20.0 °F 21.9 °F 78% 30.11 in 10.0 mi SSW 8.1 mph - N/A   Clear
7:35 PM 27.7 °F 20.4 °F 21.7 °F 78% 30.11 in 10.0 mi SSW 6.9 mph - N/A   Clear
7:55 PM 27.0 °F 20.5 °F 21.4 °F 79% 30.11 in 10.0 mi SSW 5.8 mph - N/A   Clear
8:15 PM 26.4 °F 18.0 °F 21.2 °F 81% 30.09 in 10.0 mi SSW 8.1 mph - N/A   Clear
8:35 PM 26.1 °F 18.4 °F 21.0 °F 81% 30.08 in 10.0 mi SSW 6.9 mph - N/A   Clear
8:55 PM 25.7 °F 18.0 °F 20.8 °F 82% 30.08 in 10.0 mi SSW 6.9 mph - N/A   Clear
9:15 PM 24.6 °F 16.7 °F 20.3 °F 84% 30.08 in 10.0 mi SSW 6.9 mph - N/A   Clear
9:35 PM 24.4 °F 15.6 °F 20.1 °F 84% 30.06 in 10.0 mi South 8.1 mph - N/A   Clear
9:55 PM 24.3 °F 15.4 °F 19.9 °F 84% 30.05 in 10.0 mi South 8.1 mph - N/A   Clear
10:15 PM 24.4 °F 15.6 °F 19.6 °F 82% 30.04 in 10.0 mi South 8.1 mph - N/A   Clear
10:35 PM 24.3 °F 14.6 °F 19.4 °F 82% 30.03 in 10.0 mi South 9.2 mph - N/A   Clear
10:55 PM 24.3 °F 12.7 °F 19.4 °F 82% 30.04 in 10.0 mi SSW 12.7 mph - N/A   Clear
11:15 PM 23.5 °F 12.4 °F 19.0 °F 83% 30.03 in 10.0 mi SSW 11.5 mph - N/A   Clear
11:35 PM 22.8 °F 12.9 °F 18.7 °F 84% 30.02 in 10.0 mi South 9.2 mph - N/A   Clear